Find Starlink 5943

NORAD ID: 56016 Int'l Des: 2023-042 Owner: SPXS Country: US Constellation: starlink operational
LEOCIRCULAR

Live Position

Loading 3D Globe...

About Starlink 5943

Description loading...

Upcoming Passes

Passes for default location (London). Set your location on the main map for personalized predictions.

Altitude History

Loading altitude history...

Two-Line Element Set

1 56016U 23042AG 26104.58817824 -.00000622 00000-0 -13495-4 0 9993
2 56016 43.0019 202.6596 0001892 281.6965 78.3674 15.26736805168524
Epoch: Apr 14, 2026 • Age: 13 hours

Current Status

Altitude 485.6 km
Velocity 7.63 km/s
Sub-Earth Point 22.93°N, 19.22°W
Launch Date Mar 24, 2023
Age 3 years
Type internet

Technical Details

Classification Payload
Mass 305.00 kg
Dry Mass 290.00 kg
Total Mass 305.00 kg
Length 0.20 m
Diameter 2.80 m
Span 9.00 m
Shape Box + pan
Manufacturer SPXS
Bus Type Starlink
Phase Status In Orbit
Owner/State SPXS/US

Most Searched